STARLINK-33619, 63324

Orbit data source: Space-Track

STARLINK-33619, 63324 is a payload satellite owned by SpaceX/Seattle (US) in LEO that was launched on Tue, 18 Mar 2025 UTC via an FALCON 9 launch vehicle from the Air Force Eastern Test Range (AFETR). Payload-class satellites include a variety of spacecraft equipped with specific instruments for various scientific and technological missions. These include communications satellites like Starlink; space stations such as the ISS; scientific satellites like the Hubble; Earth observation satellites from companies like Planet Labs, Umbra, and HawkEye 360; GPS; miniature CubeSats for education and research; and military/defense satellites.

Loading next visibility...
Identifier
63324, 2025-057T
Orbit
LEO
Last TLE update
8 hours ago
Origin
Manufacturer
SpaceX/Seattle
Mission
Operational Commercial Communications
Bus & Motor
STARLINK V2MO, Unknown motor
Mass
575 kg wet, ~530 kg dry
Launch date (UTC)
2025-03-18 (2 months ago)
Launch vehicle
FALCON 9
Launch site
Air Force Eastern Test Range (AFETR)
Object type
Payload
Rocket body
Debris
Shape & HBR
Box + 1 Pan, 29 m
Radar Cross Section
41.120 m², Large (>1 m²)

Expand to show TLE details & history

TLE from 8 hours ago
0 STARLINK-33619
1 63324U 25057T   25128.93056257  .00016135  00000-0  59617-3 0  9999
2 63324  43.0001 311.5166 0000413  19.9368 340.1500 15.27490596  9173
Epoch: 2025-05-08T22:20Z
Definitive object data (Epoch: 2025-05-08T22:20:00.606Z)
Latitude
0.00002°
Longitude
109.52011°
Altitude
482.826 km
Speed
7.626 km/s
True Right ascension
20h 46m 03s
True Declination
0° 00' 00"
Sunlit
Object was in daylight at TLE epoch
Visualization TLE readout
Latitude
32.2948°
Longitude
150.0001°
Altitude
484 km
Speed
7.628 km/s
Apparent Right ascension
00h 52m 13s
Apparent Declination
-2° 27' 56"
Sunlit
Object is in daylight
Visualization observer readout
Local Sidereal Time
14:33:02
Azimuth
37.876° NE
Elevation
-46.13°
Doppler factor
1
Orbital elements
Apogee altitude
485.545 km
Perigee altitude
484.978 km
Semi-major axis
6,863.399 km
Eccentricity
0.0000413
Inclination
43.0001°
RAAN
311.5166°
Arg. of periapsis
19.9368°
True anomaly
340.14839°
Mean anomaly
340.15°
Eccentric anomaly
340.1492°
Mean motion
3.81711 °/min
BSTAR
0.00059617
Orbital period
94.31 mins
Loading maneuver chart data...
Loading SW <> Apogee altitude chart data...
Loading historical data...
Loading historical data...
Loading historical data...
Loading historical data...
Loading historical data...
Loading historical data...
Loading historical data...

STARLINK-33619 Visibility forecast

Observer location: undefined°, undefined°

Span
Click to sort rows by Start time (UTC) header in descending order
Start Az.
Max El. time (UTC)
Max El. Az.
Max El.
End time (UTC)
End Az.
5 mins2025-05-09 15:50:13.130Z222.768° SW2025-05-09 15:52:13.130Z150.116° SSE39.137°2025-05-09 15:55:13.130Z79.089° E
5 mins2025-05-09 17:29:13.130Z281.323° WNW2025-05-09 17:31:13.130Z358.271° N40.036°2025-05-09 17:34:13.130Z69.625° E
5 mins2025-05-09 19:08:13.130Z295.744° NW2025-05-09 19:10:13.130Z356.889° N40.706°2025-05-09 19:13:13.130Z87.955° E
5 mins2025-05-09 20:47:13.130Z271.799° WNW2025-05-09 20:49:13.130Z211.679° SW36.645°2025-05-09 20:52:13.130Z135.161° SSE
|